Погода в Ужгороде

Поиск расширенной информации на нашем сайте:

Полезная информация:

Новости сайта



02.01.2020
Опубликован Долгосрочный прогноз погоды по городам России и ближнего зарубежья на январь 2020 года.
Карты: Прогноз на январь и февраль 2020 года, Сравнение прогнозируемой аномалии приземной температуры воздуха на январь 2020 года по разным моделям.




Погода в Ужгороде - сегодня

Время (UTC), дата Ветер
(°,м/с) 
Видим.   Явления Облачность Т
(°С)
Тd
(°С)
f(%) Тe
(°С)
Pmin
(гПа)
dP
(гПа)
Po
(мм)
O2
(г/м3)
Тmin Tmax R s Состояние
почвы
09 04.06.20 120 (ЮВ) 10 км  в посл. час ливневой дождь  10/10 600 м кучево-дожд. 
[Cb calv]
+14.4 +11 80 +17  1004.5  0.3  743  282           
12 04.06.20 100 (В) 10 км  в посл. час гроза{ливн. осадки}  9/9 900 м кучево-дожд. 
[Cb calv]
+15.5 +13.2 86 +22  1003.6  -0.8  742  280         
15 04.06.20 130 (ЮВ) 20000 м    9/9 1200 м кучево-дожд. 
[Cb calv]
+19.4 +13.7 70 +27  1002.1  -1.3  741  276           
18 04.06.20 120 (ЮВ) 10 км    9/9 1200 м кучево-дожд. 
[Cb calv]
+17.3 +12.3 72 +23  1001.2  -1  741  278    +20     
21 04.06.20 120 (ЮВ) 10 км  в посл. час ливневой дождь  9/9 1080 м кучево-дожд. 
[Cb calv]
+15.4 +13.6 89 +22  1001.8  0.5  741  280           
00 05.06.20 120 (ЮВ) 10 км  в посл. час ливневой дождь  10/10 1080 м кучево-дожд. 
[Cb calv]
+15.7 +13.4 86 +21  1001.9  0.1  741  280         
03 05.06.20 130 (ЮВ) 10 км    9/9 1140 м кучево-дожд. 
[Cb calv]
+15.5 +13.4 87 +21  1001.6  -0.3  741  280           
06 05.06.20 130 (ЮВ) 10 км    10/10 1470 м 
[Sc]
+15.9 +13.4 85 +22  1002.1  0.5  741  280  +15.2       
09 05.06.20 140 (ЮВ) 10 км    10/4 1000 м средняя 
[Sc|Ac As]
+18 +12.9 72 +23  1003.3  1.3  742  278           
12 05.06.20 160 (Ю) 10 км    10/5 1000 м средняя 
[Sc|Ac As]
+20.5 +11.8 57 +24  1003.2  742  276           
15 05.06.20 130 (ЮВ) 10 км    10/5 1500 м средняя 
[Sc|Ac As]
+19.7 +13.2 66 +26  1002.6  -0.6  742  276           
18 05.06.20 150 (ЮВ) 10 км  слаб. дождь{ливн. осадки}  10/10 1200 м 
[Sc]
+20.2 +12 59 +24  1003.2  0.6  742  276    +20.9  0.0     
21 05.06.20 130 (ЮВ) 10 км  {ливн. осадки, дождь}  10/5 1500 м средняя 
[Sc|Ac As]
+17.4 +14.6 84 +27  1004.1  0.7  743  278           
00 06.06.20 140 (ЮВ) 10 км  {ливн. осадки}  10/10 1200 м 
[Sc]
+16.8 +15.3 91 +26  1006.4  2.3  744  279         
03 06.06.20 140 (ЮВ) 10 км  {ливн. осадки}  9/9 240 м 
[St]
+16.6 +15.6 94 +27  1007.1  0.7  745  280           
06 06.06.20 150 (ЮВ) 10 км  слаб. дождь{ливн. осадки}  10/10 270 м 
[Ns]
+17.1 +16.1 94 +29  1009  1.9  746  280  +16.5       
09 06.06.20 160 (Ю) 10 км  {дождь}  8/8 540 м 
[Sc]
+19.9 +16.4 80 +32  1009.6  0.7  747  277           
12 06.06.20 120 (ЮВ) 10 км  {дождь}  8/8 900 м 
[Sc]
+22.8 +16.8 69 +35  1009.8  0.3  747  274      0.0     
15 06.06.20 130 (ЮВ) 10 км    8/4 1000 м средняя 
[Sc|Ac und]
+23.4 +14.5 57 +31  1008.4  -1.3  746  274           
18 06.06.20 080 (В) 10 км    9/9 1000 м 
[Sc]
+21 +16 73 +32  1008.7  0.2  746  276    +24.2  0.0     
21 06.06.20 080 (В) 10 км    8/4 1000 м средняя 
[Sc|Ac trans]
+19.3 +14.5 74 +28  1008.5  -0.3  746  278           
00 07.06.20 тихо ()   10 км    4/0 верхняя 
[Ci fib]
+15.5 +14.3 93 +23  1008.6  -0.1  746  281           
03 07.06.20 120 (ЮВ) 10 км    4/0 средняя 
[Ac trans]
+14.3 +12.9 91 +21  1007.9  -0.8  745  283           
06 07.06.20 тихо ()   10 км    5/0 средняя 
[Ac und]
+19.8 +16.3 80 +31  1008.2  0.6  746  277  +12.8         
09 07.06.20 210 (ЮЗ) 10 км    5/0 верхняя 
[Ci fib]
+26.6 +15.7 51 +37  1007.7  -0.2  746  271           
Время (UTC), дата Ветер
(°,м/с) 
Видим.   Явления Облачность Т
(°С)
Тd
(°С)
f(%) Тe
(°С)
Pmin
(гПа)
dP
(гПа)
Po
(мм)
O2
(г/м3)
Тmin Tmax R s Состояние
почвы

Для получения пояснительной информации подведите курсор к названию столбца.

ПОГОДА в Ужгороде - архив

Всё, что Вы хотите узнать о погоде в Ужгороде - удобно и подробно!

Выберите нужную дату (начиная с 1 января 2019* года) и нажмите кнопку "Найти".
Будут отображены архивные сводки погоды по пункту Ужгород, начиная с указанной даты.


Отображать данные в формате CSV (для использования в таблицах Excel)


Внимание! Наш архив погоды предназначен исключительно для личного некоммерческого использования в познавательных целях. Если Вам необходимы официальные справки о состоянии погоды (для производственных, юридических, коммерческих и т.п. целей), обращайтесь в органы Росгидромета.

*Примечание: данная дата относится к архиву по метеостанциям СССР (Россия, СНГ, Балтия).
Архив по метеостанциям Зарубежной Европы и Азии (кроме Китая) хранится 10 дней, по другим регионам земного шара (Китай, Африка, Америка, Австралия, Океания) - 1 день.

Ужгород - район местоположения метеостанции


Название, широта, долгота, высота метеостанции:
Ужгород 48.6°ш. 22.3°д. 124 м над ур. моря [Украина]

Дополнительная информация

В oтличие oт бoльшинства пoгoдных сайтoв мы публикуем пoдрoбную метеoинфoрмацию в детальнoм прoфессиoнальнoм фoрмате.

Характеристики температуры и влажнoсти вoздуха измеряются на высoте 2 м в тени вдали oт зданий и деревьев.
Скoрoсть ветра измеряется на высoте 10 м (на урoвне рoста челoвека скoрoсть ветра ниже в 1.5-2 раза). Если метеoстанция нахoдится в гoрoде или в лесу, тo скoрoсть ветра занижена на 2-4 м/с пo сравнению с oткрытым местoм. Скoрoсть ветра над акватoриями крупных рек и oзёр, а также на вершинах хoлмoв на 2-5 м/с выше, чем в oбычных услoвиях.
Атмoсфернoе давление в разных тoчках местнoсти мoжет значительнo oтличаться oт давления на метеoстанции, в зависимoсти oт услoвий рельефа (при пoдъёме на 10 м давление пoнижается примернo на 1 мм рт.ст.).